When you browse on this site, cookies collect data to enhance your experience and personalize the content and advertising you see.
Visit our Privacy Policy to learn more. By continuing to use the site, you agree to this use of cookies and data.

Stündliche Wetter Aschtarak

Heute, 12 August, Mittwoch

Zeit Temperatur Niederschläge Wind Luftdruck Luftfeuchtigkeit
00:00 +20°C° 0 mm 3 m/S 656 mmHg 69%
01:00 +19°C° 0 mm 3 m/S 656 mmHg 70%
02:00 +19°C° 0 mm 3 m/S 656 mmHg 71%
03:00 +19°C° 0 mm 2 m/S 656 mmHg 72%
04:00 +19°C° 0 mm 2 m/S 656 mmHg 72%
05:00 +19°C° 0 mm 2 m/S 657 mmHg 72%
06:00 +19°C° 0 mm 2 m/S 657 mmHg 72%
07:00 +21°C° 0 mm 2 m/S 657 mmHg 65%
08:00 +24°C° 0 mm 1 m/S 657 mmHg 59%
09:00 +25°C° 0 mm 1 m/S 658 mmHg 53%
10:00 +27°C° 0.1 mm 1 m/S 658 mmHg 50%
11:00 +28°C° 0.1 mm 1 m/S 658 mmHg 46%
12:00 +29°C° 0.1 mm 1 m/S 658 mmHg 43%
13:00 +29°C° 0.1 mm 2 m/S 658 mmHg 42%
14:00 +30°C° 0.1 mm 2 m/S 658 mmHg 40%
15:00 +31°C° 0.1 mm 3 m/S 657 mmHg 39%
16:00 +30°C° 0.1 mm 4 m/S 657 mmHg 42%
17:00 +29°C° 0.1 mm 4 m/S 657 mmHg 46%
18:00 +28°C° 0.1 mm 5 m/S 657 mmHg 50%
19:00 +26°C° 0 mm 5 m/S 657 mmHg 53%
20:00 +25°C° 0 mm 5 m/S 657 mmHg 57%
21:00 +22°C° 0 mm 4 m/S 657 mmHg 60%
22:00 +22°C° 0 mm 4 m/S 657 mmHg 61%
23:00 +22°C° 0 mm 3 m/S 657 mmHg 61%

Morgen, 13 August, Donnerstag

Zeit Temperatur Niederschläge Wind Luftdruck Luftfeuchtigkeit
00:00 +21°C° 0 mm 3 m/S 657 mmHg 62%
01:00 +21°C° 0 mm 2 m/S 657 mmHg 63%
02:00 +20°C° 0 mm 2 m/S 657 mmHg 64%
03:00 +20°C° 0 mm 2 m/S 656 mmHg 65%
04:00 +20°C° 0 mm 2 m/S 656 mmHg 66%
05:00 +20°C° 0 mm 2 m/S 657 mmHg 66%
06:00 +20°C° 0 mm 2 m/S 657 mmHg 66%
07:00 +23°C° 0.2 mm 1 m/S 657 mmHg 62%
08:00 +24°C° 0.2 mm 1 m/S 657 mmHg 58%
09:00 +25°C° 0.2 mm 1 m/S 657 mmHg 55%
10:00 +27°C° 0.5 mm 1 m/S 657 mmHg 51%
11:00 +28°C° 0.5 mm 1 m/S 657 mmHg 46%
12:00 +29°C° 0.5 mm 1 m/S 657 mmHg 42%
13:00 +30°C° 0.5 mm 1 m/S 657 mmHg 40%
14:00 +30°C° 0.5 mm 2 m/S 656 mmHg 39%
15:00 +31°C° 0.5 mm 2 m/S 656 mmHg 37%
16:00 +30°C° 0.4 mm 2 m/S 656 mmHg 41%
17:00 +28°C° 0.4 mm 2 m/S 656 mmHg 46%
18:00 +27°C° 0.4 mm 2 m/S 656 mmHg 50%
19:00 +26°C° 0.4 mm 2 m/S 656 mmHg 56%
20:00 +24°C° 0.4 mm 2 m/S 656 mmHg 61%
21:00 +21°C° 0.4 mm 3 m/S 656 mmHg 67%
22:00 +21°C° 0.1 mm 3 m/S 656 mmHg 67%
23:00 +21°C° 0.1 mm 3 m/S 656 mmHg 67%

übermorgen, 14 August, Freitag

Zeit Temperatur Niederschläge Wind Luftdruck Luftfeuchtigkeit
00:00 +21°C° 0.1 mm 2 m/S 656 mmHg 68%
01:00 +20°C° 0 mm 2 m/S 656 mmHg 68%
02:00 +20°C° 0 mm 2 m/S 656 mmHg 69%
03:00 +20°C° 0 mm 2 m/S 656 mmHg 70%
04:00 +20°C° 0 mm 2 m/S 656 mmHg 70%
05:00 +19°C° 0 mm 2 m/S 656 mmHg 71%
06:00 +19°C° 0 mm 2 m/S 656 mmHg 72%
07:00 +21°C° 0 mm 2 m/S 656 mmHg 66%
08:00 +24°C° 0 mm 2 m/S 656 mmHg 60%
09:00 +25°C° 0 mm 1 m/S 656 mmHg 55%
10:00 +26°C° 0.4 mm 1 m/S 656 mmHg 51%
11:00 +28°C° 0.4 mm 1 m/S 656 mmHg 48%
12:00 +29°C° 0.4 mm 1 m/S 656 mmHg 44%
13:00 +29°C° 0.4 mm 2 m/S 656 mmHg 44%
14:00 +29°C° 0.4 mm 3 m/S 655 mmHg 43%
15:00 +29°C° 0.4 mm 4 m/S 655 mmHg 43%
16:00 +28°C° 0.3 mm 4 m/S 655 mmHg 47%
17:00 +27°C° 0.3 mm 5 m/S 655 mmHg 51%
18:00 +26°C° 0.3 mm 5 m/S 654 mmHg 55%
19:00 +23°C° 0.7 mm 4 m/S 655 mmHg 60%
20:00 +22°C° 0.7 mm 4 m/S 655 mmHg 65%
21:00 +20°C° 0.7 mm 3 m/S 655 mmHg 71%
22:00 +20°C° 0.2 mm 3 m/S 655 mmHg 71%
23:00 +19°C° 0.2 mm 2 m/S 655 mmHg 72%

15 August, Samstag

Zeit Temperatur Niederschläge Wind Luftdruck Luftfeuchtigkeit
00:00 +19°C° 0.2 mm 2 m/S 655 mmHg 73%
01:00 +19°C° 0 mm 2 m/S 655 mmHg 74%
02:00 +18°C° 0 mm 2 m/S 655 mmHg 75%
03:00 +18°C° 0 mm 2 m/S 655 mmHg 75%
04:00 +18°C° 0 mm 2 m/S 655 mmHg 75%
05:00 +18°C° 0 mm 2 m/S 655 mmHg 75%
06:00 +18°C° 0 mm 2 m/S 655 mmHg 75%
07:00 +20°C° 0 mm 2 m/S 655 mmHg 69%
08:00 +22°C° 0 mm 1 m/S 655 mmHg 63%
09:00 +24°C° 0 mm 1 m/S 656 mmHg 57%
10:00 +25°C° 0.1 mm 1 m/S 656 mmHg 54%
11:00 +26°C° 0.1 mm 1 m/S 655 mmHg 51%
12:00 +27°C° 0.1 mm 1 m/S 655 mmHg 48%
13:00 +27°C° 0.1 mm 2 m/S 655 mmHg 47%
14:00 +27°C° 0.1 mm 3 m/S 655 mmHg 46%
15:00 +28°C° 0.1 mm 3 m/S 655 mmHg 45%
16:00 +27°C° 0 mm 4 m/S 655 mmHg 47%
17:00 +26°C° 0 mm 5 m/S 655 mmHg 49%
18:00 +25°C° 0 mm 5 m/S 655 mmHg 51%
19:00 +23°C° 0 mm 5 m/S 655 mmHg 53%
20:00 +22°C° 0 mm 4 m/S 656 mmHg 55%
21:00 +20°C° 0 mm 4 m/S 656 mmHg 58%
22:00 +20°C° 0 mm 3 m/S 656 mmHg 58%
23:00 +19°C° 0 mm 3 m/S 656 mmHg 59%

16 August, Sonntag

Zeit Temperatur Niederschläge Wind Luftdruck Luftfeuchtigkeit
00:00 +18°C° 0 mm 2 m/S 656 mmHg 60%
01:00 +18°C° 0 mm 2 m/S 655 mmHg 61%
02:00 +17°C° 0 mm 2 m/S 655 mmHg 62%
03:00 +17°C° 0 mm 2 m/S 655 mmHg 63%
04:00 +17°C° 0 mm 2 m/S 655 mmHg 65%
05:00 +17°C° 0 mm 2 m/S 655 mmHg 66%
06:00 +17°C° 0 mm 2 m/S 655 mmHg 68%
07:00 +19°C° 0 mm 2 m/S 655 mmHg 63%
08:00 +21°C° 0 mm 2 m/S 656 mmHg 58%
09:00 +24°C° 0 mm 2 m/S 656 mmHg 53%
10:00 +25°C° 0 mm 2 m/S 656 mmHg 50%
11:00 +26°C° 0 mm 2 m/S 656 mmHg 48%
12:00 +27°C° 0 mm 2 m/S 656 mmHg 45%
13:00 +28°C° 0.1 mm 2 m/S 656 mmHg 44%
14:00 +28°C° 0.1 mm 2 m/S 656 mmHg 43%
15:00 +29°C° 0.1 mm 2 m/S 655 mmHg 42%
16:00 +27°C° 0.3 mm 3 m/S 655 mmHg 47%
17:00 +26°C° 0.3 mm 3 m/S 655 mmHg 51%
18:00 +25°C° 0.3 mm 4 m/S 654 mmHg 56%
19:00 +23°C° 1 mm 4 m/S 654 mmHg 62%
20:00 +21°C° 1 mm 4 m/S 654 mmHg 68%
21:00 +19°C° 1 mm 4 m/S 654 mmHg 73%
22:00 +19°C° 1.4 mm 3 m/S 654 mmHg 76%
23:00 +18°C° 1.4 mm 2 m/S 654 mmHg 78%

17 August, Montag

Zeit Temperatur Niederschläge Wind Luftdruck Luftfeuchtigkeit
00:00 +18°C° 1.4 mm 2 m/S 654 mmHg 81%
01:00 +18°C° 0.6 mm 2 m/S 654 mmHg 80%
02:00 +19°C° 0.6 mm 1 m/S 654 mmHg 80%
03:00 +19°C° 0.6 mm 1 m/S 654 mmHg 80%
04:00 +19°C° 0.2 mm 1 m/S 654 mmHg 79%
05:00 +19°C° 0.2 mm 1 m/S 654 mmHg 79%
06:00 +19°C° 0.2 mm 1 m/S 655 mmHg 79%
07:00 +20°C° 0.1 mm 1 m/S 655 mmHg 74%
08:00 +21°C° 0.1 mm 1 m/S 655 mmHg 70%
09:00 +22°C° 0.1 mm 1 m/S 655 mmHg 65%
10:00 +23°C° 0.3 mm 1 m/S 656 mmHg 62%
11:00 +24°C° 0.3 mm 1 m/S 656 mmHg 59%
12:00 +25°C° 0.3 mm 1 m/S 656 mmHg 55%
13:00 +25°C° 0.3 mm 2 m/S 656 mmHg 54%
14:00 +26°C° 0.3 mm 2 m/S 655 mmHg 52%
15:00 +26°C° 0.3 mm 3 m/S 655 mmHg 50%
16:00 +25°C° 0.2 mm 4 m/S 655 mmHg 52%
17:00 +23°C° 0.2 mm 4 m/S 655 mmHg 54%
18:00 +22°C° 0.2 mm 5 m/S 655 mmHg 57%
19:00 +21°C° 0.2 mm 5 m/S 655 mmHg 61%
20:00 +19°C° 0.2 mm 5 m/S 655 mmHg 65%
21:00 +18°C° 0.2 mm 4 m/S 656 mmHg 69%
22:00 +18°C° 0.3 mm 4 m/S 656 mmHg 71%
23:00 +17°C° 0.3 mm 3 m/S 656 mmHg 73%
Mehr zeigen